Theta_e
342 344 346 347 348 347 347 347 348 348 348 348 348 349 348 347 345 345 347 345 344 343 343 344 343 343 342 342 341 339 338 338 340 339 336 334 331 330 327 324 321 322 323 323 324 326 327 325 323 321 320 325
338 341 344 343 344 344 343 345 346 346 346 346 346 344 343 341 341 342 344 344 343 343 342 342 342 341 341 341 341 339 338 339 339 337 335 333 331 329 327 324 321 321 321 321 323 324 323 322 321 319 318 323
342 334 339 340 340 341 341 342 343 343 341 341 341 340 337 334 335 337 338 341 341 340 339 337 339 341 340 341 340 338 338 339 338 336 334 333 331 329 326 323 320 320 320 320 320 322 321 318 317 315 318 321
345 335 332 336 337 338 339 339 340 340 337 337 335 334 330 328 332 333 338 330 338 336 338 334 336 338 341 340 340 338 339 338 336 335 334 332 331 328 326 322 320 321 320 318 317 318 317 316 313 318 318 319
344 342 330 332 333 333 334 335 336 337 332 329 329 329 324 326 338 341 342 339 343 330 340 329 327 335 339 339 337 338 339 338 336 335 333 332 330 327 322 318 316 315 315 315 315 315 313 310 315 314 316 318
343 343 336 342 341 341 337 332 331 338 343 331 340 325 332 338 337 340 341 340 334 339 337 334 324 329 335 336 334 336 338 338 336 334 333 331 328 324 319 312 311 308 308 311 311 310 308 312 312 312 314 316
342 342 341 340 341 342 333 336 334 342 341 341 338 338 338 336 337 340 342 341 336 337 328 335 322 326 331 333 331 332 336 337 335 334 332 330 326 320 314 312 309 306 305 305 305 303 306 309 310 311 312 313
341 342 342 342 341 340 340 340 338 340 339 337 336 337 338 337 338 340 342 329 324 328 338 335 321 324 326 326 325 325 332 333 334 333 332 328 322 316 311 309 306 303 303 303 304 305 304 305 306 309 310 310
339 340 341 342 342 342 340 338 340 339 338 340 340 338 337 337 336 338 339 338 337 338 339 338 336 332 332 332 331 323 333 334 333 329 326 321 315 313 311 308 304 303 302 302 303 303 303 304 305 306 307 307
337 339 339 339 340 341 342 342 339 339 339 339 340 339 337 336 336 337 336 336 336 336 336 335 332 331 330 332 332 329 328 328 327 323 322 321 317 311 307 305 304 304 302 303 302 302 304 303 304 305 306 307
336 337 338 339 339 338 340 341 340 339 337 337 338 338 336 336 336 334 335 334 335 334 334 333 331 328 327 328 328 327 328 326 324 323 323 322 317 309 307 304 304 304 303 303 305 304 303 303 303 303 304 306
335 335 337 335 336 339 336 333 334 335 336 336 335 334 338 335 335 334 333 333 333 334 333 333 332 331 328 327 324 323 325 323 322 322 321 319 314 311 309 307 306 305 304 303 305 307 305 304 303 303 303 303
333 334 335 334 335 336 332 338 337 337 334 333 330 331 333 333 333 333 332 332 331 329 330 329 328 328 329 328 324 322 323 323 321 320 319 318 315 311 310 308 308 306 304 303 303 304 305 303 303 302 302 302
330 331 332 332 333 334 332 337 338 335 335 331 330 330 329 328 331 332 330 328 326 328 327 326 324 323 324 325 325 324 323 320 320 319 317 315 314 311 308 309 306 306 307 304 303 302 304 303 301 301 301 302
328 329 330 328 330 331 331 333 332 332 332 332 331 328 329 331 330 328 328 326 325 326 326 325 325 325 325 325 323 323 322 318 318 317 318 317 314 311 310 311 304 306 308 305 303 301 303 302 301 301 301 301
322 322 321 321 322 321 321 320 321 321 321 320 323 323 325 326 326 324 326 326 324 324 325 324 324 324 323 322 319 320 319 317 314 315 315 315 314 313 313 308 305 304 308 306 302 301 302 300 301 301 300 301
318 318 318 317 317 317 317 318 317 317 317 317 317 318 319 320 322 324 324 323 322 320 323 322 322 322 321 320 320 320 317 314 313 314 313 311 309 309 310 309 305 303 304 306 302 300 300 300 301 300 300 301
316 316 315 315 315 314 314 314 313 313 313 314 314 315 315 317 317 319 320 321 321 320 319 318 318 318 317 316 315 314 314 314 313 313 314 311 311 309 312 312 309 308 310 307 302 303 300 300 300 299 300 300
311 311 311 310 310 309 310 309 310 310 310 310 311 311 312 313 314 315 317 318 319 317 317 316 315 314 313 313 313 314 313 313 312 312 311 310 312 309 310 308 304 306 306 305 306 303 300 300 299 299 299 299
307 306 305 305 305 304 305 304 304 304 305 305 307 307 308 309 310 312 313 314 316 315 315 314 312 311 311 312 312 312 311 311 310 310 309 308 309 310 308 307 307 303 304 302 303 301 299 299 298 299 299 299
304 304 303 302 301 301 301 301 301 301 301 302 302 302 303 304 305 308 310 310 311 311 311 311 310 310 311 311 311 309 309 307 307 308 307 303 302 305 306 304 304 304 302 301 300 299 299 299 298 299 299 299
302 302 301 300 299 299 297 297 297 297 298 298 298 299 299 301 302 303 305 307 308 308 308 309 309 309 309 310 309 308 307 306 306 306 307 304 301 302 304 303 302 301 300 299 299 299 299 299 298 298 298 299
302 300 299 298 298 297 296 295 295 295 295 295 296 296 297 297 298 300 301 303 304 303 304 305 306 307 308 308 308 307 305 304 305 305 305 306 303 300 299 300 298 297 297 299 298 299 298 297 298 298 297 297
298 298 298 297 296 295 294 294 293 293 293 293 293 294 295 295 296 298 299 300 301 301 301 301 301 302 304 305 305 304 303 303 303 303 302 300 302 301 298 295 296 296 297 297 298 298 298 298 297 297 297 296
297 296 295 294 293 292 292 292 292 292 292 292 292 293 293 294 294 295 296 297 298 298 298 298 298 299 300 301 301 300 300 301 301 302 302 300 298 300 300 297 296 296 295 297 299 299 299 299 297 295 296 296
294 294 293 292 291 291 291 291 290 290 290 290 291 291 291 292 293 294 294 295 296 296 296 296 296 296 297 298 298 297 298 297 297 298 299 301 301 299 297 294 295 296 298 297 293 294 295 297 299 298 295 296
293 294 294 293 292 291 289 290 290 290 290 290 289 289 290 290 291 292 292 293 293 294 294 294 295 294 295 295 296 296 295 296 296 296 297 298 298 298 298 296 297 296 296 293 293 294 293 294 293 299 297 296
293 292 292 292 291 291 291 289 289 289 288 288 288 287 288 288 289 290 290 291 292 292 292 292 293 293 294 294 294 294 294 294 294 294 295 296 296 298 296 296 295 296 295 293 294 294 292 292 290 293 293 291
293 292 291 291 291 291 289 289 288 287 286 286 286 286 286 286 287 288 288 289 289 290 290 291 291 292 292 292 293 293 293 292 292 293 294 295 295 295 296 294 294 295 295 295 295 293 292 292 292 290 290 291
291 291 291 291 289 287 285 284 284 283 283 284 284 284 285 286 286 286 286 287 287 288 288 288 289 290 290 290 291 292 292 292 292 292 292 292 294 294 295 294 294 294 295 295 294 295 294 293 290 288 290 292
289 288 287 286 286 285 284 283 283 284 285 284 284 285 284 284 285 285 285 285 286 286 287 287 287 287 288 288 288 289 290 290 290 291 291 292 292 292 293 294 292 291 292 295 294 294 294 294 293 292 290 289
Wind_Speed
8 7 7 8 8 6 6 6 5 5 5 4 4 3 3 2 1 4 4 6 5 5 4 6 6 5 5 6 6 6 6 8 10 10 10 9 8 8 8 9 8 8 8 8 8 7 7 8 8 7 4 3
8 9 8 7 8 6 6 6 6 5 5 5 4 4 2 2 3 4 3 4 4 5 5 3 4 3 4 4 5 7 8 10 9 9 9 9 8 8 9 9 8 8 8 8 8 7 8 8 8 7 5 3
5 8 9 8 7 7 7 6 7 5 5 4 2 2 5 4 4 4 4 4 2 4 4 4 3 4 5 6 5 6 8 10 10 9 8 8 8 8 9 9 8 8 8 9 8 8 7 7 6 6 3 3
5 6 9 9 8 9 8 7 7 7 5 4 4 5 5 5 3 4 4 5 2 3 4 4 4 6 5 5 5 6 12 11 9 8 8 8 8 9 9 9 9 8 9 9 8 7 7 6 4 3 2 2
5 4 6 6 10 9 9 9 8 7 6 6 6 6 6 5 2 2 4 4 3 5 4 4 6 4 3 3 5 7 12 11 10 8 8 8 8 9 9 9 8 8 8 8 8 7 6 5 3 2 2 2
5 5 5 6 4 5 7 7 7 6 5 6 4 5 5 3 3 3 3 3 4 2 4 4 5 4 6 5 7 9 10 11 11 10 9 8 8 8 8 7 4 3 5 8 8 7 6 3 2 2 2 3
5 6 5 4 5 5 3 5 6 4 5 4 4 5 4 4 4 4 4 4 3 4 4 3 6 6 4 6 5 3 6 11 12 12 9 9 8 8 6 4 2 2 2 3 6 6 4 3 3 2 3 2
4 5 5 4 3 3 6 6 3 4 5 4 5 4 4 4 4 4 3 5 7 5 5 4 5 2 6 10 7 4 5 10 11 13 12 10 9 4 2 2 2 2 2 2 2 2 3 3 3 3 3 2
4 3 4 5 6 4 2 2 6 7 5 6 6 6 6 5 4 4 4 4 3 4 4 4 3 5 4 4 4 4 3 4 6 6 5 4 4 3 3 2 1 1 2 2 2 2 2 2 3 2 2 2
3 4 3 3 4 6 5 5 3 3 3 4 4 5 6 6 6 6 6 6 5 6 5 4 3 2 1 2 4 6 6 5 4 3 4 5 4 3 2 3 2 1 1 2 2 2 2 2 2 2 2 2
2 3 3 3 2 3 5 8 8 4 4 3 3 5 4 3 4 5 5 5 6 5 4 3 4 5 4 2 1 2 5 4 3 4 4 3 3 3 4 3 2 2 2 1 2 2 2 1 2 1 1 2
1 2 3 2 5 7 4 2 2 1 1 1 2 3 3 5 4 4 5 4 4 6 5 4 3 3 4 6 4 1 2 5 3 3 3 3 3 4 3 3 2 2 2 2 1 2 2 1 1 1 1 1
3 3 3 3 3 3 5 4 3 2 3 4 2 2 0 4 4 3 3 5 5 3 1 1 2 2 1 2 3 3 3 2 5 3 3 2 3 3 3 2 2 1 2 1 1 1 1 1 1 1 1 1
5 4 4 4 4 1 3 5 6 3 1 2 2 2 1 2 3 4 4 2 1 3 4 3 2 3 2 1 2 3 4 3 4 4 3 3 3 4 3 2 2 1 1 1 1 1 1 1 1 1 1 0
5 5 4 4 3 5 4 2 4 6 6 6 6 4 0 2 4 3 3 4 3 3 2 2 2 1 1 2 0 1 1 1 1 1 3 4 6 6 4 3 2 1 1 1 1 1 1 1 1 1 1 1
8 8 8 7 7 8 7 9 8 8 7 8 7 9 9 8 7 5 1 3 4 3 2 2 2 1 1 2 3 2 2 1 2 1 2 0 1 3 3 3 3 2 2 1 1 0 1 1 1 1 1 1
9 9 9 9 9 8 8 9 8 8 8 7 7 9 8 8 8 7 6 6 5 3 3 3 2 1 3 4 3 2 2 3 3 2 2 2 2 2 1 3 3 2 1 1 1 1 1 0 0 1 1 1
9 9 9 8 7 8 9 8 9 9 8 8 8 8 8 8 8 6 7 7 7 6 6 6 5 4 4 4 4 4 4 3 3 2 2 2 2 2 0 0 1 1 1 1 1 1 1 1 0 0 1 1
10 10 9 8 8 9 8 8 8 8 7 7 8 9 10 9 9 7 8 7 6 7 6 6 5 6 5 4 4 4 3 3 4 4 4 3 3 2 2 3 3 3 2 2 2 2 2 2 2 1 1 1
9 10 10 9 9 9 9 9 9 9 9 9 8 10 10 10 10 11 11 10 8 7 7 6 6 5 4 4 6 5 5 6 5 4 4 4 4 3 3 2 2 2 3 3 3 3 2 1 1 2 1 2
11 11 11 11 10 10 10 10 10 9 8 8 9 9 9 10 10 10 10 11 10 8 8 8 7 6 5 5 6 6 4 4 3 4 5 5 5 4 3 4 4 3 3 3 3 3 4 3 3 3 2 2
10 9 10 10 10 11 12 10 8 7 7 9 8 8 8 9 10 11 12 10 9 8 8 8 8 8 8 8 6 5 4 5 4 4 4 4 3 3 4 3 4 3 2 2 3 3 3 4 3 4 3 3
8 10 11 9 10 11 10 9 8 7 9 9 8 9 9 10 9 9 10 9 8 8 8 8 9 9 9 7 6 6 6 7 6 4 4 4 3 4 5 3 2 2 2 3 3 4 4 3 4 3 3 3
8 8 7 8 8 10 9 8 8 10 9 8 9 8 9 9 9 9 9 8 8 9 8 8 9 9 9 8 7 8 8 6 5 5 5 6 4 3 3 3 4 3 3 3 4 4 4 3 4 4 3 3
6 7 8 9 10 8 6 8 8 10 9 10 9 9 10 10 9 9 9 9 9 10 10 9 9 8 8 8 8 8 8 6 6 5 4 3 5 6 7 6 5 4 2 3 4 2 4 5 1 3 3 3
9 7 7 9 7 8 7 7 9 9 9 9 8 11 10 9 9 10 10 9 9 9 9 8 8 8 8 7 7 7 6 7 7 8 8 4 4 4 5 4 4 5 4 3 6 6 6 2 4 3 3 4
8 6 6 7 5 6 8 7 7 8 7 8 10 11 11 10 10 10 10 10 10 9 9 8 8 8 7 8 6 7 8 8 9 8 8 8 5 4 4 4 4 6 5 4 4 2 2 3 6 2 3 2
9 10 10 10 9 9 8 7 6 8 8 9 11 12 10 10 9 10 10 10 10 9 9 9 9 7 8 8 8 7 8 9 9 8 8 7 7 3 6 5 6 7 6 4 5 4 3 3 2 6 3 8
7 8 8 7 8 6 7 7 7 8 10 9 9 10 11 10 10 11 10 10 11 10 10 10 9 9 8 9 9 8 8 8 8 8 7 8 7 8 5 5 4 6 6 7 6 3 3 3 2 2 7 11
4 5 6 5 6 8 8 10 9 10 8 8 9 9 7 10 11 10 11 10 10 11 10 10 10 10 10 10 9 8 8 7 8 10 9 8 7 8 8 4 5 6 6 7 8 7 4 1 1 5 6 5
5 8 8 10 10 9 8 11 6 5 5 6 6 6 9 8 10 10 10 11 10 10 10 10 10 10 9 9 9 8 8 9 9 8 8 7 8 7 6 6 7 7 6 2 6 6 6 4 2 2 3 5
Wind_Direction
180 191 195 194 192 187 185 183 173 189 204 211 205 207 220 219 111 156 166 173 193 199 209 162 156 171 149 130 127 113 54 63 86 101 101 98 92 81 74 70 68 67 59 56 56 56 52 46 47 42 26 47
190 181 195 194 197 188 176 176 173 182 196 210 222 196 167 104 151 155 158 147 188 183 196 179 148 178 147 149 134 93 85 100 103 105 105 104 95 85 78 71 65 67 61 59 58 56 53 49 43 41 35 45
207 190 186 191 188 186 181 176 176 178 183 199 209 146 123 130 146 147 128 124 156 177 194 155 145 178 179 182 154 107 99 110 106 106 106 103 95 87 80 71 62 61 65 63 61 57 53 50 45 39 37 39
209 205 192 188 186 184 180 179 181 180 171 180 168 137 129 129 130 147 126 132 118 161 197 165 172 195 191 180 158 124 108 113 113 115 111 101 93 86 78 72 64 57 63 61 61 60 55 50 47 42 35 29
205 199 196 198 190 190 184 180 185 183 177 168 158 140 128 116 125 164 135 148 166 173 159 177 185 198 171 96 85 104 117 125 125 121 110 99 94 87 84 75 63 49 52 58 59 59 51 51 50 38 30 26
192 180 191 203 204 190 190 189 184 191 197 177 178 144 144 155 173 173 154 150 153 170 153 183 177 186 134 134 132 133 141 133 125 120 109 103 95 90 84 76 73 52 36 42 49 49 45 44 43 30 24 23
192 179 176 185 191 189 197 196 185 195 192 195 183 182 174 159 182 178 161 158 152 168 151 196 190 159 123 116 133 141 131 127 125 119 114 111 103 93 82 71 72 69 54 31 38 42 32 34 25 18 22 26
202 194 180 175 177 195 190 183 211 191 184 207 174 177 188 187 194 187 177 153 166 160 156 186 194 228 166 138 134 133 128 126 130 129 135 125 109 93 62 80 74 82 81 59 34 45 43 33 18 17 11 14
217 178 169 182 191 206 211 235 192 186 204 198 202 199 194 188 183 188 185 175 176 198 174 190 185 172 197 149 133 129 111 125 132 129 106 97 102 130 114 102 88 106 95 69 65 51 45 45 30 18 15 2
192 172 187 170 179 180 226 259 247 265 184 206 214 202 200 194 192 199 195 192 191 199 179 173 156 155 165 195 148 148 144 157 138 110 131 136 135 129 115 108 112 79 88 107 72 70 54 45 39 26 10 6
164 175 159 158 131 214 204 201 223 194 189 206 233 211 191 191 208 202 208 203 196 194 179 164 176 165 149 169 314 213 149 148 143 154 149 148 139 135 129 112 109 103 82 72 100 81 70 55 48 36 15 2
134 133 133 119 164 226 215 71 25 47 63 48 176 229 222 207 209 204 201 200 191 198 186 177 160 150 162 172 162 355 306 138 167 143 142 144 147 137 118 125 121 115 95 77 53 80 63 65 59 40 30 8
96 76 82 79 26 26 4 341 355 14 75 75 35 19 92 210 202 220 223 207 191 107 76 105 144 136 163 152 134 148 206 185 143 155 162 155 124 103 116 130 123 107 99 92 70 55 65 33 37 46 48 46
88 83 74 62 52 9 39 332 299 347 36 101 75 77 136 208 196 206 160 163 328 144 140 134 97 106 117 154 140 170 193 220 164 164 136 120 130 132 130 138 126 134 98 74 57 50 57 74 36 30 8 27
96 85 87 64 57 29 13 32 8 21 4 9 14 344 208 178 139 138 128 144 151 106 124 95 106 116 128 178 136 231 265 107 9 126 141 157 170 148 155 154 125 136 138 96 74 32 19 28 10 40 21 332
63 59 55 48 49 47 40 43 40 39 29 30 25 26 22 23 25 11 358 111 130 113 93 68 70 69 163 157 120 94 89 58 33 35 55 38 34 116 160 134 132 143 166 154 112 103 58 31 14 4 358 338
66 64 59 62 56 53 55 50 50 42 32 34 31 30 21 34 30 28 32 19 21 47 75 94 86 58 20 23 33 27 55 97 96 100 114 64 76 73 64 113 127 135 147 173 137 139 93 57 37 14 318 319
69 66 69 65 63 63 63 57 57 49 40 32 40 35 23 31 35 26 36 41 48 46 53 48 48 43 37 37 63 64 39 35 18 18 10 35 23 41 16 173 80 62 334 16 18 354 16 288 314 317 286 279
77 75 72 68 66 59 60 63 61 58 55 49 38 33 30 24 33 27 36 47 64 56 60 63 56 44 39 49 55 59 56 67 53 48 42 18 -0 15 14 23 33 23 10 338 335 329 330 321 313 279 287 287
72 72 68 66 64 63 57 58 54 48 41 40 41 40 37 22 29 33 27 28 27 50 53 66 64 52 52 67 72 59 41 51 47 46 65 44 27 355 4 -0 34 23 4 349 327 328 312 295 276 282 275 282
70 71 70 69 67 65 57 52 51 49 47 45 43 38 36 24 26 32 33 34 29 37 39 46 54 52 55 62 69 67 64 77 80 81 84 52 33 27 24 16 11 26 18 353 323 313 315 315 318 293 279 249
72 71 72 68 66 63 62 57 55 52 51 48 46 43 39 31 34 32 31 31 28 35 33 41 47 43 42 44 51 60 53 57 45 48 64 72 38 76 96 55 6 6 357 322 304 306 306 302 295 290 284 287
72 74 75 70 64 57 55 52 47 46 51 44 44 41 35 36 38 33 34 31 34 42 39 35 34 38 34 38 45 52 55 47 42 59 64 79 57 27 38 70 65 341 324 317 308 301 302 300 279 283 273 279
75 69 58 65 60 53 47 46 48 45 48 42 45 38 41 41 45 39 43 38 37 46 41 42 36 39 33 35 41 43 43 39 35 35 45 52 49 63 83 62 23 354 340 319 310 319 308 269 286 282 310 291
53 68 79 64 58 66 46 55 57 54 47 50 45 39 41 40 41 37 41 36 41 43 48 46 41 39 37 39 45 47 43 30 38 41 45 77 48 44 49 30 6 3 325 353 350 333 309 315 317 284 295 340
69 59 62 90 79 82 58 46 47 52 44 46 46 43 40 41 38 40 42 36 40 45 46 50 49 45 42 39 49 56 49 42 38 34 33 24 68 42 61 56 1 356 335 44 1 328 330 323 315 303 43 31
79 74 71 82 91 80 85 60 62 67 59 51 53 46 42 38 37 37 40 35 38 44 40 46 50 46 44 42 36 47 43 38 39 32 35 31 42 58 48 73 31 21 35 19 324 250 293 346 338 1 33 352
82 85 90 83 87 78 75 82 73 71 57 51 49 47 41 41 39 40 44 38 39 44 43 40 44 43 43 41 35 42 47 38 35 28 27 27 33 31 59 37 36 24 24 41 359 18 356 315 327 326 43 342
98 105 94 94 90 94 94 68 58 57 47 43 49 52 38 35 35 39 42 39 40 42 44 41 40 42 41 41 34 37 43 41 34 31 29 19 31 28 42 52 29 27 29 46 36 50 358 351 358 16 319 322
71 77 92 105 93 74 68 58 42 45 45 41 42 50 48 43 37 38 43 39 38 39 39 41 38 38 40 37 34 33 40 36 32 28 27 20 24 30 21 52 43 36 30 38 37 37 66 71 333 330 317 355
86 84 80 79 81 88 86 98 71 68 58 70 66 63 55 53 45 38 44 42 40 41 41 44 41 41 43 43 41 33 39 37 32 29 26 16 29 26 21 27 59 34 3 9 38 26 38 43 26 272 327 347